Time,TemperatureF,DewpointF,PressureIn,WindDirection,WindDirectionDegrees,WindSpeedMPH,WindSpeedGustMPH,Humidity,HourlyPrecipIn,Conditions,Clouds,dailyrainin,SoftwareType,DateUTC
2013-05-09 00:01:00,52.0,49.0,30.10,SE,145,0.0,-999.0,90,-99.99,,,-99.99,,2013-05-09 07:01:00,
2013-05-09 00:12:00,52.0,49.0,30.10,SE,145,0.0,-999.0,90,-99.99,,,-99.99,,2013-05-09 07:12:00,
2013-05-09 00:21:00,52.0,50.0,30.10,SE,145,0.0,-999.0,92,-99.99,,,-99.99,,2013-05-09 07:21:00,
2013-05-09 00:31:00,52.0,49.0,30.11,SE,145,0.0,-999.0,91,-99.99,,,-99.99,,2013-05-09 07:31:00,
2013-05-09 00:42:00,52.0,49.0,30.11,SE,145,0.0,-999.0,91,-99.99,,,-99.99,,2013-05-09 07:42:00,
2013-05-09 00:52:00,51.0,49.0,30.11,SE,145,0.0,-999.0,92,-99.99,,,-99.99,,2013-05-09 07:52:00,
2013-05-09 01:02:00,51.0,49.0,30.11,SE,145,0.0,-999.0,93,-99.99,,,-99.99,,2013-05-09 08:02:00,
2013-05-09 01:11:00,51.0,49.0,30.11,SE,145,0.0,-999.0,93,-99.99,,,-99.99,,2013-05-09 08:11:00,
2013-05-09 01:21:00,51.0,49.0,30.11,SE,145,0.0,-999.0,93,-99.99,,,-99.99,,2013-05-09 08:21:00,
2013-05-09 01:31:00,51.0,49.0,30.12,SE,145,0.0,-999.0,94,-99.99,,,-99.99,,2013-05-09 08:31:00,
2013-05-09 01:41:00,51.0,49.0,30.12,SE,145,0.0,-999.0,94,-99.99,,,-99.99,,2013-05-09 08:41:00,
2013-05-09 01:51:00,50.0,48.0,30.12,SE,145,0.0,-999.0,93,-99.99,,,-99.99,,2013-05-09 08:51:00,
2013-05-09 02:02:00,50.0,49.0,30.12,SE,145,0.0,-999.0,95,-99.99,,,-99.99,,2013-05-09 09:02:00,
2013-05-09 02:11:00,50.0,49.0,30.12,SE,145,0.0,-999.0,95,-99.99,,,-99.99,,2013-05-09 09:11:00,
2013-05-09 02:21:00,50.0,48.0,30.12,SE,145,0.0,-999.0,94,-99.99,,,-99.99,,2013-05-09 09:21:00,
2013-05-09 02:32:00,50.0,49.0,30.13,SE,145,0.0,-999.0,95,-99.99,,,-99.99,,2013-05-09 09:32:00,
2013-05-09 02:42:00,50.0,49.0,30.13,SE,145,0.0,-999.0,95,-99.99,,,-99.99,,2013-05-09 09:42:00,
2013-05-09 02:52:00,49.0,47.0,30.13,SE,145,0.0,-999.0,94,-99.99,,,-99.99,,2013-05-09 09:52:00,
2013-05-09 03:02:00,49.0,47.0,30.14,SE,145,0.0,-999.0,94,-99.99,,,-99.99,,2013-05-09 10:02:00,
2013-05-09 03:12:00,49.0,48.0,30.14,SE,145,0.0,-999.0,95,-99.99,,,-99.99,,2013-05-09 10:12:00,
2013-05-09 03:22:00,49.0,48.0,30.14,SE,145,0.0,-999.0,95,-99.99,,,-99.99,,2013-05-09 10:22:00,
2013-05-09 03:33:00,48.0,47.0,30.14,SE,145,0.0,-999.0,95,-99.99,,,-99.99,,2013-05-09 10:33:00,
2013-05-09 03:42:00,48.0,47.0,30.14,SE,145,0.0,-999.0,95,-99.99,,,-99.99,,2013-05-09 10:42:00,
2013-05-09 03:52:00,48.0,47.0,30.14,SE,145,0.0,-999.0,96,-99.99,,,-99.99,,2013-05-09 10:52:00,
2013-05-09 04:02:00,48.0,47.0,30.14,SE,145,0.0,-999.0,96,-99.99,,,-99.99,,2013-05-09 11:02:00,
2013-05-09 04:12:00,48.0,47.0,30.14,SE,145,0.0,-999.0,96,-99.99,,,-99.99,,2013-05-09 11:12:00,
2013-05-09 04:22:00,48.0,47.0,30.14,SE,145,0.0,-999.0,96,-99.99,,,-99.99,,2013-05-09 11:22:00,
2013-05-09 04:32:00,48.0,47.0,30.15,SSE,147,1.0,-999.0,96,-99.99,,,-99.99,,2013-05-09 11:32:00,
2013-05-09 04:41:00,48.0,47.0,30.15,SSE,147,1.0,-999.0,96,-99.99,,,-99.99,,2013-05-09 11:41:00,
2013-05-09 04:51:00,48.0,47.0,30.15,SSE,147,0.0,-999.0,97,-99.99,,,-99.99,,2013-05-09 11:51:00,
2013-05-09 05:01:00,48.0,47.0,30.15,SSE,147,0.0,-999.0,96,-99.99,,,-99.99,,2013-05-09 12:01:00,
2013-05-09 05:11:00,48.0,47.0,30.15,SSE,147,0.0,-999.0,97,-99.99,,,-99.99,,2013-05-09 12:11:00,
2013-05-09 05:21:00,48.0,47.0,30.15,SSE,147,0.0,-999.0,97,-99.99,,,-99.99,,2013-05-09 12:21:00,
2013-05-09 05:31:00,48.0,47.0,30.15,SSE,147,0.0,-999.0,97,-99.99,,,-99.99,,2013-05-09 12:31:00,
2013-05-09 05:42:00,48.0,47.0,30.15,SSE,147,0.0,-999.0,97,-99.99,,,-99.99,,2013-05-09 12:42:00,
2013-05-09 05:51:00,48.0,47.0,30.15,SSE,147,0.0,-999.0,97,-99.99,,,-99.99,,2013-05-09 12:51:00,
2013-05-09 06:01:00,48.0,47.0,30.16,SSE,147,0.0,-999.0,97,-99.99,,,-99.99,,2013-05-09 13:01:00,
2013-05-09 06:11:00,48.0,47.0,30.16,SSE,147,0.0,-999.0,97,-99.99,,,-99.99,,2013-05-09 13:11:00,
2013-05-09 06:21:00,48.0,47.0,30.16,SSE,147,0.0,-999.0,97,-99.99,,,-99.99,,2013-05-09 13:21:00,
2013-05-09 06:31:00,48.0,47.0,30.16,SSE,147,0.0,-999.0,97,-99.99,,,-99.99,,2013-05-09 13:31:00,
2013-05-09 06:42:00,48.0,47.0,30.16,SSE,147,0.0,-999.0,97,-99.99,,,-99.99,,2013-05-09 13:42:00,
2013-05-09 06:52:00,48.0,47.0,30.17,SSE,147,0.0,-999.0,97,-99.99,,,-99.99,,2013-05-09 13:52:00,
2013-05-09 07:01:00,49.0,48.0,30.17,SSE,147,0.0,-999.0,97,-99.99,,,-99.99,,2013-05-09 14:01:00,
2013-05-09 07:11:00,49.0,48.0,30.17,SSE,147,0.0,-999.0,97,-99.99,,,-99.99,,2013-05-09 14:11:00,
2013-05-09 07:21:00,49.0,48.0,30.18,SSE,147,0.0,-999.0,97,-99.99,,,-99.99,,2013-05-09 14:21:00,
2013-05-09 07:32:00,49.0,48.0,30.18,SSE,147,0.0,-999.0,97,-99.99,,,-99.99,,2013-05-09 14:32:00,
2013-05-09 07:41:00,49.0,48.0,30.18,SSE,147,0.0,-999.0,97,-99.99,,,-99.99,,2013-05-09 14:41:00,
2013-05-09 07:52:00,49.0,48.0,30.18,ESE,103,1.0,-999.0,97,-99.99,,,-99.99,,2013-05-09 14:52:00,
2013-05-09 08:01:00,49.0,48.0,30.18,East,94,0.0,-999.0,97,-99.99,,,-99.99,,2013-05-09 15:01:00,
2013-05-09 08:11:00,49.0,48.0,30.18,East,94,0.0,-999.0,97,-99.99,,,-99.99,,2013-05-09 15:11:00,
2013-05-09 08:21:00,49.0,48.0,30.18,ENE,63,0.0,-999.0,97,-99.99,,,-99.99,,2013-05-09 15:21:00,
2013-05-09 08:33:00,49.0,48.0,30.18,ENE,63,0.0,-999.0,97,-99.99,,,-99.99,,2013-05-09 15:33:00,
2013-05-09 08:42:00,49.0,48.0,30.18,ENE,63,0.0,-999.0,97,-99.99,,,-99.99,,2013-05-09 15:42:00,
2013-05-09 08:53:00,49.0,48.0,30.18,ENE,63,0.0,-999.0,97,-99.99,,,-99.99,,2013-05-09 15:53:00,
2013-05-09 09:03:00,49.0,48.0,30.18,ENE,63,0.0,-999.0,97,-99.99,,,-99.99,,2013-05-09 16:03:00,
2013-05-09 09:12:00,49.0,48.0,30.18,ENE,63,0.0,-999.0,97,-99.99,,,-99.99,,2013-05-09 16:12:00,
2013-05-09 09:22:00,49.0,48.0,30.18,ENE,59,0.0,-999.0,97,-99.99,,,-99.99,,2013-05-09 16:22:00,
2013-05-09 09:32:00,49.0,48.0,30.18,ENE,59,0.0,-999.0,97,-99.99,,,-99.99,,2013-05-09 16:32:00,
2013-05-09 09:42:00,49.0,48.0,30.18,ENE,59,0.0,-999.0,97,-99.99,,,-99.99,,2013-05-09 16:42:00,
2013-05-09 09:52:00,50.0,49.0,30.18,ENE,67,0.0,-999.0,97,-99.99,,,-99.99,,2013-05-09 16:52:00,
2013-05-09 10:02:00,50.0,49.0,30.17,North,9,1.0,-999.0,97,-99.99,,,-99.99,,2013-05-09 17:02:00,
2013-05-09 10:12:00,50.0,49.0,30.17,North,9,1.0,-999.0,97,-99.99,,,-99.99,,2013-05-09 17:12:00,
2013-05-09 10:21:00,50.0,49.0,30.18,North,10,0.0,-999.0,97,-99.99,,,-99.99,,2013-05-09 17:21:00,
2013-05-09 10:32:00,50.0,49.0,30.18,ESE,120,0.0,-999.0,96,-99.99,,,-99.99,,2013-05-09 17:32:00,
2013-05-09 10:41:00,50.0,49.0,30.18,ESE,120,0.0,-999.0,96,-99.99,,,-99.99,,2013-05-09 17:41:00,
2013-05-09 10:55:00,50.0,49.0,30.17,ESE,120,0.0,-999.0,97,-99.99,,,-99.99,,2013-05-09 17:55:00,
2013-05-09 11:01:00,51.0,50.0,30.17,ESE,121,0.0,-999.0,96,-99.99,,,-99.99,,2013-05-09 18:01:00,
2013-05-09 11:12:00,51.0,50.0,30.17,ESE,121,0.0,-999.0,96,-99.99,,,-99.99,,2013-05-09 18:12:00,
2013-05-09 11:21:00,51.0,50.0,30.17,ESE,108,0.0,-999.0,96,-99.99,,,-99.99,,2013-05-09 18:21:00,
2013-05-09 11:31:00,52.0,50.0,30.17,SSE,149,1.0,-999.0,94,-99.99,,,-99.99,,2013-05-09 18:31:00,
2013-05-09 11:41:00,52.0,50.0,30.17,SSE,149,1.0,-999.0,94,-99.99,,,-99.99,,2013-05-09 18:41:00,
2013-05-09 11:52:00,52.0,50.0,30.18,SSE,164,1.0,-999.0,94,-99.99,,,-99.99,,2013-05-09 18:52:00,
2013-05-09 12:01:00,52.0,50.0,30.18,SE,136,1.0,-999.0,94,-99.99,,,-99.99,,2013-05-09 19:01:00,
2013-05-09 12:11:00,52.0,50.0,30.18,SE,136,1.0,-999.0,94,-99.99,,,-99.99,,2013-05-09 19:11:00,
2013-05-09 12:21:00,53.0,51.0,30.18,ESE,123,1.0,-999.0,93,-99.99,,,-99.99,,2013-05-09 19:21:00,
2013-05-09 12:31:00,54.0,51.0,30.17,SE,136,1.0,-999.0,91,-99.99,,,-99.99,,2013-05-09 19:31:00,
2013-05-09 12:41:00,54.0,51.0,30.17,SE,136,1.0,-999.0,91,-99.99,,,-99.99,,2013-05-09 19:41:00,
2013-05-09 12:52:00,55.0,52.0,30.17,SE,141,1.0,-999.0,89,-99.99,,,-99.99,,2013-05-09 19:52:00,
2013-05-09 13:01:00,56.0,52.0,30.16,SE,127,1.0,-999.0,86,-99.99,,,-99.99,,2013-05-09 20:01:00,
2013-05-09 13:11:00,56.0,52.0,30.16,SE,127,1.0,-999.0,86,-99.99,,,-99.99,,2013-05-09 20:11:00,
2013-05-09 13:21:00,58.0,54.0,30.16,East,90,2.0,-999.0,85,-99.99,,,-99.99,,2013-05-09 20:21:00,
2013-05-09 13:32:00,59.0,53.0,30.16,SE,130,1.0,-999.0,81,-99.99,,,-99.99,,2013-05-09 20:32:00,
2013-05-09 13:42:00,59.0,53.0,30.15,SSE,159,1.0,-999.0,81,-99.99,,,-99.99,,2013-05-09 20:42:00,
2013-05-09 13:52:00,59.0,53.0,30.15,SSE,159,1.0,-999.0,81,-99.99,,,-99.99,,2013-05-09 20:52:00,
2013-05-09 14:01:00,61.0,54.0,30.15,SSE,151,1.0,-999.0,78,-99.99,,,-99.99,,2013-05-09 21:01:00,
2013-05-09 14:11:00,61.0,54.0,30.15,SSE,151,1.0,-999.0,78,-99.99,,,-99.99,,2013-05-09 21:11:00,
2013-05-09 14:22:00,62.0,54.0,30.15,SE,126,1.0,-999.0,75,-99.99,,,-99.99,,2013-05-09 21:22:00,
2013-05-09 14:32:00,63.0,55.0,30.14,SSE,155,2.0,-999.0,74,-99.99,,,-99.99,,2013-05-09 21:32:00,
2013-05-09 14:42:00,64.0,57.0,30.14,East,94,1.0,-999.0,77,-99.99,,,-99.99,,2013-05-09 21:42:00,
2013-05-09 14:53:00,64.0,57.0,30.14,East,94,1.0,-999.0,77,-99.99,,,-99.99,,2013-05-09 21:53:00,
2013-05-09 15:02:00,64.0,55.0,30.14,SE,130,1.0,-999.0,72,-99.99,,,-99.99,,2013-05-09 22:02:00,
2013-05-09 15:12:00,65.0,54.0,30.13,ENE,74,1.0,-999.0,68,-99.99,,,-99.99,,2013-05-09 22:12:00,
2013-05-09 15:22:00,65.0,54.0,30.13,ENE,74,1.0,-999.0,68,-99.99,,,-99.99,,2013-05-09 22:22:00,
2013-05-09 15:32:00,66.0,55.0,30.13,ESE,115,2.0,-999.0,68,-99.99,,,-99.99,,2013-05-09 22:32:00,
2013-05-09 15:42:00,66.0,56.0,30.12,SE,138,2.0,-999.0,69,-99.99,,,-99.99,,2013-05-09 22:42:00,
2013-05-09 15:52:00,66.0,56.0,30.12,SE,138,2.0,-999.0,69,-99.99,,,-99.99,,2013-05-09 22:52:00,
2013-05-09 16:02:00,66.0,54.0,30.11,SE,140,1.0,-999.0,65,-99.99,,,-99.99,,2013-05-09 23:02:00,
2013-05-09 16:11:00,66.0,54.0,30.11,SE,140,1.0,-999.0,65,-99.99,,,-99.99,,2013-05-09 23:11:00,
2013-05-09 16:21:00,66.0,54.0,30.11,ESE,115,2.0,-999.0,66,-99.99,,,-99.99,,2013-05-09 23:21:00,
2013-05-09 16:32:00,67.0,54.0,30.11,SE,134,1.0,-999.0,63,-99.99,,,-99.99,,2013-05-09 23:32:00,
2013-05-09 16:42:00,67.0,54.0,30.11,SE,134,1.0,-999.0,63,-99.99,,,-99.99,,2013-05-09 23:42:00,
2013-05-09 16:52:00,67.0,54.0,30.11,ESE,120,1.0,-999.0,62,-99.99,,,-99.99,,2013-05-09 23:52:00,
2013-05-09 17:01:00,67.0,53.0,30.10,SE,138,1.0,-999.0,61,-99.99,,,-99.99,,2013-05-10 00:01:00,
2013-05-09 17:11:00,67.0,54.0,30.10,SSE,150,1.0,-999.0,62,-99.99,,,-99.99,,2013-05-10 00:11:00,
2013-05-09 17:21:00,67.0,54.0,30.10,SSE,150,1.0,-999.0,62,-99.99,,,-99.99,,2013-05-10 00:21:00,
2013-05-09 17:31:00,67.0,53.0,30.09,SE,140,1.0,-999.0,61,-99.99,,,-99.99,,2013-05-10 00:31:00,
2013-05-09 17:42:00,67.0,53.0,30.09,SE,140,1.0,-999.0,61,-99.99,,,-99.99,,2013-05-10 00:42:00,
2013-05-09 17:52:00,67.0,53.0,30.09,SE,140,1.0,-999.0,61,-99.99,,,-99.99,,2013-05-10 00:52:00,
2013-05-09 18:01:00,67.0,54.0,30.09,SE,129,1.0,-999.0,63,-99.99,,,-99.99,,2013-05-10 01:01:00,
2013-05-09 18:11:00,67.0,54.0,30.09,SE,129,1.0,-999.0,63,-99.99,,,-99.99,,2013-05-10 01:11:00,
2013-05-09 18:21:00,67.0,54.0,30.09,SE,129,1.0,-999.0,63,-99.99,,,-99.99,,2013-05-10 01:21:00,
2013-05-09 18:31:00,67.0,55.0,30.08,SE,139,1.0,-999.0,66,-99.99,,,-99.99,,2013-05-10 01:31:00,
2013-05-09 18:42:00,67.0,55.0,30.08,SE,139,1.0,-999.0,66,-99.99,,,-99.99,,2013-05-10 01:42:00,
2013-05-09 18:52:00,67.0,55.0,30.08,SE,139,1.0,-999.0,66,-99.99,,,-99.99,,2013-05-10 01:52:00,
2013-05-09 19:01:00,66.0,55.0,30.08,SE,136,0.0,-999.0,67,-99.99,,,-99.99,,2013-05-10 02:01:00,
2013-05-09 19:11:00,66.0,55.0,30.08,SE,136,0.0,-999.0,67,-99.99,,,-99.99,,2013-05-10 02:11:00,
2013-05-09 19:21:00,66.0,55.0,30.08,SE,136,0.0,-999.0,67,-99.99,,,-99.99,,2013-05-10 02:21:00,
2013-05-09 19:31:00,65.0,54.0,30.08,SE,136,0.0,-999.0,67,-99.99,,,-99.99,,2013-05-10 02:31:00,
2013-05-09 19:42:00,65.0,54.0,30.08,SE,136,0.0,-999.0,67,-99.99,,,-99.99,,2013-05-10 02:42:00,
2013-05-09 19:52:00,65.0,54.0,30.08,SE,136,0.0,-999.0,67,-99.99,,,-99.99,,2013-05-10 02:52:00,
2013-05-09 20:01:00,63.0,52.0,30.08,SE,136,0.0,-999.0,67,-99.99,,,-99.99,,2013-05-10 03:01:00,
2013-05-09 20:11:00,63.0,52.0,30.08,SE,136,0.0,-999.0,67,-99.99,,,-99.99,,2013-05-10 03:11:00,
2013-05-09 20:21:00,63.0,52.0,30.08,SE,136,0.0,-999.0,67,-99.99,,,-99.99,,2013-05-10 03:21:00,
2013-05-09 20:32:00,62.0,52.0,30.08,SE,136,0.0,-999.0,69,-99.99,,,-99.99,,2013-05-10 03:32:00,
2013-05-09 20:42:00,62.0,52.0,30.08,SE,136,0.0,-999.0,69,-99.99,,,-99.99,,2013-05-10 03:42:00,
2013-05-09 20:52:00,62.0,52.0,30.09,SE,136,0.0,-999.0,71,-99.99,,,-99.99,,2013-05-10 03:52:00,
2013-05-09 21:02:00,61.0,52.0,30.09,SE,136,0.0,-999.0,73,-99.99,,,-99.99,,2013-05-10 04:02:00,
2013-05-09 21:12:00,61.0,52.0,30.09,SE,136,0.0,-999.0,73,-99.99,,,-99.99,,2013-05-10 04:12:00,
2013-05-09 21:22:00,60.0,52.0,30.09,SE,136,0.0,-999.0,76,-99.99,,,-99.99,,2013-05-10 04:22:00,
2013-05-09 21:33:00,59.0,52.0,30.09,SE,136,0.0,-999.0,77,-99.99,,,-99.99,,2013-05-10 04:33:00,
2013-05-09 21:42:00,58.0,52.0,30.10,SE,136,0.0,-999.0,80,-99.99,,,-99.99,,2013-05-10 04:42:00,
2013-05-09 21:52:00,58.0,52.0,30.10,SE,136,0.0,-999.0,80,-99.99,,,-99.99,,2013-05-10 04:52:00,
2013-05-09 22:02:00,57.0,52.0,30.11,SE,136,0.0,-999.0,82,-99.99,,,-99.99,,2013-05-10 05:02:00,
2013-05-09 22:12:00,56.0,51.0,30.11,SE,136,0.0,-999.0,83,-99.99,,,-99.99,,2013-05-10 05:12:00,
2013-05-09 22:21:00,56.0,51.0,30.11,SE,136,0.0,-999.0,83,-99.99,,,-99.99,,2013-05-10 05:21:00,
2013-05-09 22:32:00,56.0,52.0,30.11,SE,135,0.0,-999.0,85,-99.99,,,-99.99,,2013-05-10 05:32:00,
2013-05-09 22:42:00,55.0,51.0,30.11,SE,135,0.0,-999.0,86,-99.99,,,-99.99,,2013-05-10 05:42:00,
2013-05-09 22:52:00,55.0,51.0,30.11,SE,135,0.0,-999.0,86,-99.99,,,-99.99,,2013-05-10 05:52:00,
2013-05-09 23:01:00,55.0,52.0,30.11,SE,135,0.0,-999.0,89,-99.99,,,-99.99,,2013-05-10 06:01:00,
2013-05-09 23:12:00,55.0,52.0,30.11,SE,135,0.0,-999.0,89,-99.99,,,-99.99,,2013-05-10 06:12:00,
2013-05-09 23:21:00,54.0,51.0,30.11,SE,135,0.0,-999.0,88,-99.99,,,-99.99,,2013-05-10 06:21:00,
2013-05-09 23:32:00,54.0,51.0,30.12,SE,135,0.0,-999.0,89,-99.99,,,-99.99,,2013-05-10 06:32:00,
2013-05-09 23:41:00,54.0,51.0,30.12,SE,135,0.0,-999.0,89,-99.99,,,-99.99,,2013-05-10 06:41:00,
2013-05-09 23:51:00,54.0,51.0,30.12,SE,135,0.0,-999.0,89,-99.99,,,-99.99,,2013-05-10 06:51:00,